Tracking 28790 objects as of 19-Apr-2024
HD Live streaming from Space Station
objects crossing your sky now

NAXING 1

Track NAXING 1 now!
10-day predictions
NAXING 1 is classified as:


NORAD ID: 28221
Int'l Code: 2004-012B
Perigee: 569.9 km
Apogee: 583.9 km
Inclination: 98.0 °
Period: 96.1 minutes
Semi major axis: 6947 km
RCS: 0.3151 m2 (medium)
Launch date: April 18, 2004
Source: People's Republic of China (PRC)
Launch site: Xichang Space Center, China (XSC)

China's first nano-satellite; high-tech demonstration experiments
Your satellite tracking list
Your tracking list is empty




NASA's NSSDC Master Catalog

Two Line Element Set (TLE):
1 28221U 04012B   24109.92552067  .00007203  00000-0  59772-3 0  9999
2 28221  98.0297  98.6074 0010053 154.9143 205.2570 14.99070164 88695
Source of the keplerian elements: AFSPC